QPF
0.00 0.00 0.00 0.00 0.00 0.00 0.00 0.00 0.00 0.00 0.00 0.00 0.01 0.01 0.01 0.01 0.01 0.01 0.01 0.01 0.01 0.02 0.02 0.02 0.02 0.02 0.02 0.01 0.01 0.01 0.02 0.02 0.03 0.04 0.05 0.06 0.07 0.09 0.12 0.16 0.17 0.18 0.18
0.00 0.00 0.00 0.00 0.00 0.00 0.00 0.00 0.00 0.00 0.00 0.00 0.01 0.01 0.00 0.00 0.01 0.01 0.01 0.01 0.01 0.01 0.01 0.02 0.02 0.02 0.03 0.03 0.02 0.02 0.01 0.02 0.02 0.03 0.04 0.05 0.06 0.08 0.09 0.14 0.18 0.18 0.18
0.00 0.00 0.00 0.00 0.00 0.00 0.00 0.00 0.00 0.00 0.01 0.01 0.01 0.01 0.01 0.01 0.01 0.01 0.01 0.01 0.01 0.01 0.01 0.02 0.02 0.03 0.03 0.04 0.05 0.03 0.03 0.02 0.02 0.02 0.03 0.05 0.06 0.08 0.10 0.11 0.15 0.20 0.20
0.00 0.00 0.00 0.00 0.00 0.00 0.00 0.00 0.00 0.00 0.01 0.01 0.01 0.01 0.01 0.01 0.01 0.01 0.01 0.01 0.01 0.01 0.01 0.02 0.02 0.02 0.03 0.04 0.04 0.05 0.05 0.04 0.04 0.03 0.03 0.04 0.05 0.07 0.10 0.12 0.15 0.18 0.20
0.00 0.00 0.00 0.00 0.00 0.00 0.00 0.00 0.00 0.00 0.00 0.00 0.01 0.01 0.01 0.01 0.00 0.00 0.00 0.00 0.01 0.01 0.01 0.01 0.01 0.01 0.02 0.02 0.02 0.04 0.05 0.06 0.05 0.04 0.04 0.04 0.05 0.06 0.09 0.12 0.16 0.21 0.21
0.00 0.00 0.00 0.00 0.00 0.00 0.00 0.00 0.00 0.00 0.00 0.01 0.01 0.01 0.01 0.00 0.00 0.00 0.00 0.00 0.00 0.00 0.01 0.02 0.01 0.01 0.01 0.00 0.00 0.00 0.01 0.02 0.03 0.04 0.04 0.05 0.06 0.08 0.09 0.13 0.16 0.21 0.27
0.00 0.00 0.00 0.00 0.00 0.00 0.00 0.00 0.00 0.00 0.01 0.01 0.01 0.01 0.01 0.02 0.00 0.00 0.00 0.00 0.00 0.00 0.01 0.02 0.01 0.01 0.02 0.02 0.02 0.01 0.01 0.00 0.00 0.01 0.02 0.04 0.06 0.09 0.11 0.12 0.15 0.18 0.24
0.00 0.00 0.00 0.00 0.00 0.00 0.00 0.00 0.01 0.01 0.01 0.01 0.01 0.01 0.01 0.01 0.00 0.00 0.00 0.00 0.00 0.01 0.01 0.02 0.03 0.03 0.03 0.03 0.04 0.04 0.04 0.03 0.02 0.01 0.01 0.02 0.04 0.07 0.12 0.16 0.18 0.20 0.24
0.00 0.00 0.00 0.00 0.00 0.00 0.00 0.00 0.01 0.01 0.01 0.01 0.01 0.01 0.02 0.02 0.01 0.00 0.00 0.00 0.01 0.01 0.01 0.02 0.03 0.04 0.03 0.01 0.02 0.03 0.03 0.04 0.02 0.01 0.01 0.01 0.01 0.02 0.06 0.13 0.19 0.24 0.23
0.00 0.00 0.00 0.00 0.00 0.00 0.00 0.00 0.01 0.01 0.01 0.01 0.01 0.02 0.02 0.02 0.01 0.00 0.00 0.00 0.01 0.01 0.02 0.03 0.02 0.01 0.01 0.00 0.01 0.03 0.03 0.04 0.05 0.04 0.03 0.02 0.01 0.01 0.02 0.06 0.14 0.23 0.24
0.00 0.00 0.00 0.00 0.00 0.00 0.00 0.00 0.01 0.01 0.01 0.01 0.01 0.01 0.02 0.03 0.02 0.00 0.00 0.00 0.01 0.01 0.02 0.03 0.04 0.01 0.00 0.00 0.00 0.02 0.03 0.04 0.06 0.07 0.08 0.08 0.07 0.04 0.03 0.03 0.07 0.18 0.26
0.00 0.00 0.00 0.00 0.00 0.00 0.00 0.01 0.01 0.01 0.02 0.02 0.02 0.02 0.02 0.02 0.02 0.01 0.00 0.00 0.00 0.01 0.01 0.03 0.04 0.01 0.00 0.00 0.00 0.00 0.00 0.00 0.02 0.05 0.06 0.07 0.07 0.06 0.04 0.04 0.05 0.10 0.20
0.00 0.00 0.00 0.00 0.00 0.00 0.00 0.00 0.01 0.01 0.01 0.01 0.01 0.01 0.01 0.01 0.02 0.01 0.00 0.00 0.00 0.00 0.01 0.01 0.01 0.00 0.00 0.01 0.01 0.00 0.00 0.01 0.03 0.04 0.05 0.07 0.06 0.08 0.10 0.09 0.10 0.11 0.14
0.00 0.00 0.00 0.00 0.00 0.00 0.00 0.00 0.00 0.00 0.00 0.00 0.01 0.01 0.01 0.01 0.02 0.03 0.02 0.02 0.01 0.02 0.02 0.02 0.01 0.01 0.00 0.01 0.02 0.02 0.02 0.02 0.03 0.05 0.06 0.07 0.07 0.09 0.11 0.12 0.12 0.13 0.12
0.00 0.00 0.00 0.00 0.00 0.00 0.00 0.00 0.00 0.00 0.00 0.00 0.00 0.00 0.00 0.01 0.01 0.00 0.00 0.01 0.01 0.01 0.01 0.02 0.03 0.05 0.05 0.05 0.06 0.08 0.08 0.06 0.04 0.05 0.07 0.08 0.09 0.09 0.10 0.12 0.14 0.14 0.12
0.00 0.00 0.00 0.00 0.00 0.00 0.00 0.00 0.00 0.00 0.00 0.00 0.00 0.00 0.00 0.00 0.00 0.00 0.00 0.00 0.00 0.00 0.00 0.01 0.03 0.05 0.07 0.09 0.09 0.10 0.10 0.10 0.08 0.08 0.09 0.09 0.10 0.10 0.10 0.11 0.13 0.13 0.12
0.00 0.00 0.00 0.00 0.00 0.00 0.00 0.01 0.01 0.01 0.01 0.01 0.00 0.00 0.00 0.00 0.00 0.00 0.00 0.00 0.00 0.00 0.00 0.02 0.04 0.06 0.07 0.09 0.10 0.11 0.11 0.11 0.12 0.10 0.10 0.11 0.12 0.12 0.11 0.12 0.12 0.13 0.13
0.00 0.00 0.00 0.00 0.00 0.00 0.00 0.01 0.02 0.02 0.03 0.03 0.02 0.02 0.01 0.00 0.00 0.00 0.00 0.00 0.01 0.01 0.02 0.03 0.06 0.07 0.08 0.09 0.10 0.10 0.10 0.11 0.11 0.10 0.10 0.12 0.13 0.14 0.13 0.12 0.12 0.12 0.12
0.01 0.00 0.00 0.00 0.00 0.00 0.00 0.01 0.02 0.02 0.03 0.03 0.03 0.04 0.03 0.01 0.00 0.00 0.00 0.00 0.02 0.05 0.07 0.07 0.07 0.08 0.09 0.10 0.11 0.11 0.11 0.12 0.12 0.11 0.11 0.12 0.13 0.14 0.14 0.12 0.12 0.12 0.13
0.01 0.00 0.00 0.00 0.00 0.00 0.01 0.02 0.02 0.03 0.03 0.04 0.04 0.05 0.03 0.02 0.02 0.04 0.04 0.04 0.05 0.07 0.08 0.08 0.08 0.09 0.10 0.11 0.12 0.12 0.12 0.13 0.13 0.12 0.11 0.12 0.14 0.14 0.14 0.14 0.13 0.12 0.12
0.00 0.00 0.00 0.00 0.01 0.01 0.02 0.02 0.03 0.03 0.03 0.04 0.04 0.03 0.01 0.01 0.02 0.04 0.07 0.08 0.08 0.09 0.08 0.08 0.08 0.09 0.10 0.11 0.10 0.11 0.13 0.14 0.14 0.13 0.13 0.13 0.13 0.13 0.14 0.13 0.11 0.12 0.12
0.01 0.00 0.00 0.00 0.01 0.02 0.02 0.02 0.02 0.03 0.03 0.03 0.03 0.02 0.02 0.02 0.03 0.04 0.06 0.07 0.08 0.08 0.08 0.07 0.07 0.07 0.08 0.09 0.10 0.11 0.12 0.14 0.16 0.16 0.15 0.13 0.13 0.12 0.14 0.13 0.12 0.12 0.12
0.01 0.01 0.00 0.01 0.01 0.02 0.02 0.02 0.03 0.04 0.03 0.02 0.02 0.03 0.03 0.05 0.06 0.06 0.06 0.06 0.07 0.07 0.08 0.08 0.08 0.07 0.08 0.08 0.08 0.09 0.11 0.13 0.13 0.13 0.15 0.14 0.12 0.11 0.12 0.12 0.11 0.11 0.10
0.00 0.00 0.00 0.01 0.01 0.02 0.02 0.02 0.03 0.03 0.02 0.02 0.02 0.03 0.03 0.06 0.06 0.06 0.06 0.07 0.07 0.07 0.08 0.09 0.08 0.08 0.08 0.09 0.09 0.07 0.07 0.08 0.07 0.09 0.11 0.13 0.12 0.11 0.11 0.12 0.13 0.11 0.11
0.00 0.00 0.00 0.01 0.01 0.01 0.01 0.02 0.03 0.03 0.03 0.03 0.03 0.02 0.03 0.04 0.04 0.04 0.05 0.06 0.06 0.05 0.06 0.07 0.08 0.07 0.06 0.06 0.07 0.06 0.04 0.03 0.03 0.06 0.09 0.12 0.13 0.12 0.11 0.11 0.12 0.12 0.11
0.00 0.00 0.01 0.01 0.02 0.02 0.01 0.02 0.04 0.04 0.04 0.04 0.03 0.03 0.03 0.03 0.03 0.03 0.04 0.04 0.04 0.04 0.04 0.06 0.07 0.06 0.05 0.06 0.04 0.03 0.02 0.01 0.01 0.02 0.04 0.10 0.14 0.14 0.12 0.11 0.11 0.12 0.12
MSLP
1013.84 1014.08 1014.28 1014.45 1014.55 1014.59 1014.57 1014.52 1014.44 1014.36 1014.30 1014.27 1014.26 1014.27 1014.27 1014.27 1014.23 1014.18 1014.10 1014.00 1013.91 1013.83 1013.78 1013.75 1013.75 1013.76 1013.77 1013.77 1013.73 1013.66 1013.55 1013.40 1013.22 1013.02 1012.79 1012.55 1012.29 1012.02 1011.73 1011.43 1011.13 1010.85 1010.60
1013.70 1013.88 1014.04 1014.17 1014.25 1014.29 1014.29 1014.25 1014.20 1014.15 1014.11 1014.07 1014.06 1014.06 1014.05 1014.02 1013.98 1013.92 1013.83 1013.72 1013.62 1013.51 1013.42 1013.35 1013.29 1013.24 1013.19 1013.13 1013.06 1012.98 1012.88 1012.76 1012.63 1012.48 1012.32 1012.13 1011.91 1011.66 1011.37 1011.06 1010.72 1010.39 1010.07
1013.53 1013.67 1013.80 1013.90 1013.97 1014.01 1014.01 1013.99 1013.96 1013.91 1013.87 1013.84 1013.81 1013.79 1013.76 1013.72 1013.66 1013.59 1013.50 1013.39 1013.28 1013.16 1013.04 1012.93 1012.83 1012.72 1012.62 1012.52 1012.42 1012.32 1012.22 1012.12 1012.02 1011.92 1011.80 1011.66 1011.49 1011.27 1011.00 1010.69 1010.33 1009.97 1009.61
1013.34 1013.47 1013.57 1013.66 1013.72 1013.75 1013.76 1013.75 1013.72 1013.67 1013.62 1013.57 1013.52 1013.47 1013.41 1013.34 1013.27 1013.18 1013.08 1012.97 1012.86 1012.74 1012.61 1012.48 1012.35 1012.21 1012.08 1011.94 1011.81 1011.69 1011.59 1011.50 1011.42 1011.35 1011.27 1011.17 1011.04 1010.85 1010.61 1010.31 1009.96 1009.58 1009.19
1013.14 1013.26 1013.36 1013.44 1013.49 1013.52 1013.53 1013.51 1013.48 1013.42 1013.35 1013.27 1013.18 1013.09 1012.99 1012.89 1012.79 1012.68 1012.57 1012.46 1012.34 1012.22 1012.10 1011.97 1011.83 1011.69 1011.53 1011.38 1011.24 1011.11 1011.00 1010.91 1010.84 1010.78 1010.73 1010.66 1010.56 1010.42 1010.21 1009.93 1009.60 1009.22 1008.82
1012.92 1013.05 1013.15 1013.23 1013.28 1013.30 1013.30 1013.27 1013.22 1013.14 1013.04 1012.93 1012.80 1012.66 1012.52 1012.37 1012.23 1012.10 1011.97 1011.85 1011.74 1011.63 1011.52 1011.40 1011.27 1011.13 1010.98 1010.83 1010.68 1010.55 1010.43 1010.34 1010.27 1010.22 1010.18 1010.13 1010.06 1009.94 1009.77 1009.52 1009.22 1008.86 1008.46
1012.70 1012.84 1012.94 1013.02 1013.06 1013.07 1013.05 1013.00 1012.93 1012.82 1012.69 1012.54 1012.36 1012.18 1011.99 1011.81 1011.63 1011.47 1011.32 1011.19 1011.08 1010.98 1010.88 1010.78 1010.67 1010.55 1010.42 1010.28 1010.14 1010.01 1009.89 1009.79 1009.71 1009.66 1009.62 1009.57 1009.52 1009.42 1009.28 1009.08 1008.81 1008.48 1008.11
1012.47 1012.62 1012.72 1012.79 1012.81 1012.80 1012.76 1012.68 1012.57 1012.44 1012.27 1012.09 1011.88 1011.66 1011.44 1011.22 1011.02 1010.83 1010.66 1010.52 1010.41 1010.31 1010.23 1010.15 1010.06 1009.96 1009.86 1009.73 1009.60 1009.47 1009.34 1009.23 1009.14 1009.07 1009.02 1008.98 1008.93 1008.86 1008.75 1008.59 1008.37 1008.09 1007.77
1012.23 1012.38 1012.48 1012.52 1012.52 1012.48 1012.40 1012.29 1012.15 1011.98 1011.80 1011.59 1011.36 1011.13 1010.89 1010.65 1010.43 1010.23 1010.06 1009.91 1009.79 1009.70 1009.62 1009.55 1009.48 1009.40 1009.31 1009.19 1009.07 1008.93 1008.79 1008.66 1008.55 1008.46 1008.39 1008.33 1008.29 1008.23 1008.16 1008.04 1007.88 1007.67 1007.41
1011.97 1012.12 1012.19 1012.21 1012.17 1012.09 1011.97 1011.82 1011.65 1011.47 1011.26 1011.05 1010.82 1010.59 1010.36 1010.13 1009.91 1009.72 1009.54 1009.39 1009.27 1009.18 1009.10 1009.02 1008.95 1008.87 1008.78 1008.67 1008.53 1008.38 1008.23 1008.07 1007.93 1007.81 1007.72 1007.65 1007.60 1007.56 1007.52 1007.45 1007.36 1007.22 1007.05
1011.67 1011.80 1011.85 1011.83 1011.75 1011.63 1011.47 1011.29 1011.10 1010.89 1010.69 1010.48 1010.28 1010.07 1009.87 1009.67 1009.48 1009.30 1009.14 1009.00 1008.87 1008.76 1008.67 1008.58 1008.49 1008.39 1008.28 1008.14 1007.99 1007.81 1007.63 1007.45 1007.28 1007.13 1007.02 1006.93 1006.88 1006.86 1006.84 1006.83 1006.80 1006.75 1006.66
1011.29 1011.41 1011.43 1011.38 1011.26 1011.10 1010.90 1010.70 1010.48 1010.28 1010.08 1009.90 1009.73 1009.58 1009.42 1009.27 1009.12 1008.98 1008.84 1008.70 1008.57 1008.44 1008.32 1008.20 1008.07 1007.93 1007.77 1007.60 1007.42 1007.21 1007.00 1006.79 1006.60 1006.43 1006.29 1006.20 1006.15 1006.13 1006.15 1006.19 1006.22 1006.25 1006.25
1010.84 1010.93 1010.93 1010.85 1010.70 1010.50 1010.28 1010.05 1009.84 1009.64 1009.47 1009.32 1009.20 1009.10 1009.01 1008.92 1008.82 1008.71 1008.60 1008.46 1008.32 1008.17 1008.00 1007.83 1007.65 1007.45 1007.25 1007.03 1006.80 1006.56 1006.32 1006.09 1005.88 1005.70 1005.55 1005.46 1005.42 1005.42 1005.47 1005.54 1005.64 1005.73 1005.83
1010.30 1010.37 1010.35 1010.24 1010.07 1009.85 1009.62 1009.38 1009.17 1008.99 1008.84 1008.74 1008.67 1008.63 1008.60 1008.57 1008.52 1008.45 1008.36 1008.23 1008.06 1007.87 1007.66 1007.42 1007.17 1006.92 1006.65 1006.38 1006.12 1005.85 1005.59 1005.36 1005.14 1004.96 1004.83 1004.75 1004.72 1004.74 1004.82 1004.93 1005.07 1005.23 1005.39
1009.70 1009.75 1009.70 1009.58 1009.40 1009.17 1008.94 1008.70 1008.50 1008.34 1008.22 1008.16 1008.14 1008.15 1008.17 1008.19 1008.18 1008.14 1008.05 1007.91 1007.72 1007.49 1007.21 1006.92 1006.60 1006.28 1005.97 1005.66 1005.36 1005.09 1004.83 1004.60 1004.41 1004.25 1004.14 1004.09 1004.08 1004.13 1004.23 1004.37 1004.55 1004.75 1004.97
1009.07 1009.08 1009.02 1008.89 1008.71 1008.49 1008.26 1008.04 1007.85 1007.71 1007.62 1007.59 1007.60 1007.64 1007.70 1007.75 1007.76 1007.73 1007.63 1007.47 1007.25 1006.96 1006.64 1006.28 1005.91 1005.54 1005.18 1004.85 1004.55 1004.28 1004.06 1003.87 1003.71 1003.60 1003.54 1003.52 1003.54 1003.62 1003.74 1003.90 1004.10 1004.33 1004.58
1008.44 1008.43 1008.35 1008.22 1008.03 1007.82 1007.60 1007.40 1007.23 1007.11 1007.04 1007.02 1007.05 1007.11 1007.18 1007.23 1007.24 1007.20 1007.08 1006.89 1006.62 1006.29 1005.92 1005.51 1005.10 1004.71 1004.33 1004.01 1003.72 1003.49 1003.31 1003.18 1003.09 1003.04 1003.03 1003.06 1003.12 1003.22 1003.36 1003.53 1003.73 1003.97 1004.24
1007.87 1007.82 1007.72 1007.58 1007.40 1007.20 1007.00 1006.81 1006.66 1006.55 1006.48 1006.47 1006.50 1006.56 1006.61 1006.65 1006.64 1006.56 1006.41 1006.18 1005.88 1005.51 1005.10 1004.67 1004.24 1003.84 1003.48 1003.17 1002.94 1002.76 1002.65 1002.59 1002.57 1002.59 1002.64 1002.72 1002.81 1002.93 1003.08 1003.26 1003.46 1003.70 1003.97
1007.37 1007.28 1007.15 1006.99 1006.81 1006.62 1006.44 1006.26 1006.12 1006.01 1005.95 1005.94 1005.95 1005.98 1006.01 1006.01 1005.97 1005.86 1005.67 1005.41 1005.07 1004.68 1004.25 1003.81 1003.39 1003.01 1002.68 1002.43 1002.25 1002.15 1002.11 1002.13 1002.19 1002.27 1002.38 1002.49 1002.62 1002.75 1002.90 1003.07 1003.26 1003.49 1003.76
1006.95 1006.80 1006.64 1006.46 1006.28 1006.09 1005.91 1005.74 1005.61 1005.50 1005.44 1005.40 1005.40 1005.40 1005.40 1005.36 1005.28 1005.14 1004.92 1004.63 1004.28 1003.88 1003.45 1003.03 1002.64 1002.29 1002.02 1001.83 1001.72 1001.70 1001.73 1001.82 1001.94 1002.08 1002.23 1002.37 1002.51 1002.64 1002.78 1002.93 1003.10 1003.32 1003.57
1006.59 1006.38 1006.18 1005.97 1005.77 1005.58 1005.40 1005.23 1005.10 1004.99 1004.92 1004.87 1004.84 1004.82 1004.79 1004.72 1004.61 1004.45 1004.21 1003.92 1003.56 1003.18 1002.78 1002.39 1002.05 1001.76 1001.55 1001.43 1001.39 1001.43 1001.53 1001.67 1001.84 1002.01 1002.18 1002.32 1002.45 1002.57 1002.69 1002.81 1002.96 1003.15 1003.40
1006.26 1006.00 1005.74 1005.51 1005.28 1005.07 1004.88 1004.71 1004.57 1004.46 1004.38 1004.32 1004.29 1004.25 1004.20 1004.13 1004.01 1003.83 1003.60 1003.32 1002.99 1002.64 1002.29 1001.95 1001.67 1001.44 1001.30 1001.24 1001.26 1001.35 1001.49 1001.66 1001.85 1002.03 1002.18 1002.31 1002.42 1002.50 1002.58 1002.67 1002.80 1002.96 1003.20
1005.96 1005.64 1005.33 1005.05 1004.78 1004.55 1004.34 1004.16 1004.01 1003.90 1003.82 1003.77 1003.73 1003.70 1003.66 1003.59 1003.48 1003.33 1003.12 1002.87 1002.59 1002.29 1002.00 1001.73 1001.50 1001.35 1001.26 1001.25 1001.31 1001.43 1001.59 1001.77 1001.94 1002.10 1002.23 1002.32 1002.38 1002.42 1002.46 1002.51 1002.60 1002.75 1002.97
1005.67 1005.29 1004.93 1004.60 1004.29 1004.02 1003.79 1003.60 1003.45 1003.33 1003.26 1003.22 1003.20 1003.18 1003.16 1003.12 1003.05 1002.93 1002.77 1002.58 1002.35 1002.12 1001.89 1001.69 1001.52 1001.42 1001.38 1001.41 1001.50 1001.63 1001.78 1001.94 1002.09 1002.20 1002.29 1002.33 1002.34 1002.33 1002.32 1002.33 1002.38 1002.51 1002.71
1005.41 1004.98 1004.57 1004.19 1003.84 1003.54 1003.28 1003.07 1002.90 1002.79 1002.73 1002.70 1002.71 1002.72 1002.74 1002.73 1002.71 1002.64 1002.54 1002.41 1002.25 1002.08 1001.92 1001.78 1001.67 1001.62 1001.62 1001.67 1001.76 1001.88 1002.02 1002.15 1002.25 1002.32 1002.35 1002.34 1002.29 1002.23 1002.18 1002.15 1002.17 1002.27 1002.46
1005.20 1004.74 1004.29 1003.87 1003.48 1003.14 1002.85 1002.62 1002.45 1002.34 1002.28 1002.27 1002.30 1002.35 1002.40 1002.44 1002.47 1002.46 1002.42 1002.34 1002.25 1002.14 1002.04 1001.95 1001.89 1001.87 1001.89 1001.96 1002.05 1002.16 1002.26 1002.36 1002.42 1002.44 1002.42 1002.36 1002.27 1002.16 1002.07 1002.00 1001.99 1002.06 1002.23
Thickness
5715 5711 5706 5702 5699 5695 5690 5686 5681 5676 5672 5667 5663 5659 5655 5652 5648 5645 5642 5639 5637 5636 5635 5634 5634 5634 5633 5635 5637 5638 5640 5641 5642 5650 5656 5662 5667 5671 5676 5681 5686 5690 5695
5715 5710 5705 5701 5696 5691 5687 5682 5677 5672 5667 5663 5658 5653 5649 5646 5642 5638 5634 5632 5629 5627 5626 5625 5625 5625 5625 5625 5626 5627 5630 5633 5634 5637 5644 5651 5657 5663 5668 5672 5678 5684 5689
5713 5708 5703 5698 5693 5687 5682 5678 5673 5668 5663 5658 5653 5648 5643 5639 5635 5631 5627 5624 5621 5619 5618 5616 5616 5615 5615 5615 5616 5617 5620 5624 5627 5629 5634 5641 5647 5653 5658 5663 5670 5676 5682
5710 5704 5699 5695 5690 5685 5680 5674 5669 5664 5658 5653 5648 5642 5637 5632 5628 5624 5621 5617 5614 5611 5609 5608 5607 5607 5607 5607 5607 5608 5610 5612 5615 5619 5624 5630 5636 5643 5648 5652 5657 5665 5672
5707 5701 5697 5693 5688 5682 5676 5671 5665 5659 5654 5648 5642 5637 5631 5627 5623 5617 5612 5609 5605 5602 5601 5600 5600 5600 5600 5599 5600 5600 5600 5601 5604 5608 5613 5618 5625 5630 5636 5643 5647 5654 5662
5704 5699 5695 5690 5684 5679 5673 5668 5662 5655 5649 5643 5637 5631 5625 5621 5615 5609 5603 5600 5597 5594 5593 5592 5592 5593 5594 5594 5593 5593 5593 5593 5594 5597 5602 5606 5613 5619 5626 5632 5637 5642 5649
5702 5697 5693 5687 5681 5676 5670 5664 5656 5650 5644 5637 5631 5625 5620 5614 5608 5602 5597 5592 5589 5587 5586 5585 5585 5587 5587 5586 5586 5586 5586 5586 5587 5588 5592 5597 5602 5609 5614 5620 5626 5632 5639
5700 5695 5690 5684 5678 5672 5665 5658 5651 5645 5638 5631 5625 5619 5614 5609 5603 5597 5591 5586 5584 5582 5581 5579 5579 5578 5578 5577 5577 5577 5578 5580 5581 5582 5586 5590 5595 5600 5605 5610 5616 5624 5632
5697 5692 5687 5680 5673 5666 5659 5653 5646 5639 5632 5625 5620 5614 5609 5604 5598 5592 5585 5582 5579 5578 5577 5576 5574 5573 5571 5569 5567 5567 5569 5571 5574 5578 5581 5585 5588 5592 5596 5600 5606 5611 5620
5694 5689 5683 5676 5668 5661 5654 5648 5641 5634 5627 5620 5615 5610 5605 5600 5595 5588 5580 5577 5574 5573 5572 5571 5569 5567 5564 5561 5558 5558 5559 5561 5563 5568 5571 5575 5580 5584 5588 5593 5598 5603 5611
5691 5685 5678 5671 5664 5658 5651 5645 5637 5629 5623 5616 5610 5606 5602 5597 5592 5585 5578 5571 5568 5566 5564 5563 5562 5559 5555 5552 5549 5549 5549 5550 5551 5555 5560 5566 5571 5577 5582 5588 5593 5598 5604
5685 5678 5672 5666 5660 5655 5647 5640 5632 5625 5617 5612 5607 5602 5599 5595 5590 5584 5575 5567 5563 5559 5557 5556 5554 5549 5546 5542 5541 5541 5540 5539 5542 5546 5551 5557 5563 5569 5576 5582 5588 5594 5599
5678 5672 5666 5660 5655 5649 5642 5635 5628 5621 5614 5609 5603 5598 5594 5591 5586 5579 5571 5564 5559 5553 5552 5550 5546 5542 5539 5538 5537 5535 5533 5533 5536 5539 5545 5551 5558 5564 5569 5575 5581 5586 5592
5671 5666 5660 5655 5650 5645 5638 5632 5624 5617 5610 5603 5597 5592 5589 5585 5580 5574 5567 5562 5556 5551 5548 5545 5542 5540 5538 5536 5535 5534 5531 5532 5534 5537 5541 5547 5552 5558 5563 5569 5573 5578 5583
5665 5659 5654 5650 5646 5641 5635 5628 5621 5615 5607 5599 5593 5588 5582 5578 5573 5564 5559 5556 5552 5547 5540 5539 5540 5541 5540 5539 5537 5536 5535 5534 5533 5535 5538 5542 5547 5553 5559 5564 5568 5572 5577
5657 5652 5648 5644 5641 5636 5631 5625 5620 5612 5606 5598 5591 5584 5580 5574 5568 5562 5556 5550 5544 5538 5533 5537 5539 5539 5539 5539 5538 5536 5535 5534 5534 5535 5537 5540 5544 5548 5553 5558 5562 5567 5572
5651 5646 5641 5637 5633 5629 5625 5619 5614 5610 5602 5595 5588 5581 5575 5570 5565 5559 5554 5548 5542 5535 5533 5537 5539 5539 5539 5538 5538 5537 5536 5536 5535 5535 5536 5539 5542 5545 5549 5553 5557 5563 5568
5645 5640 5635 5630 5626 5623 5620 5615 5610 5605 5599 5595 5589 5582 5575 5569 5563 5558 5552 5544 5545 5542 5540 5541 5541 5541 5540 5539 5539 5538 5538 5537 5536 5535 5536 5538 5540 5542 5546 5550 5555 5560 5565
5638 5633 5630 5626 5622 5618 5614 5611 5607 5602 5596 5592 5588 5583 5576 5569 5563 5557 5550 5546 5548 5548 5547 5546 5545 5543 5542 5540 5540 5539 5538 5537 5536 5536 5536 5537 5539 5541 5544 5548 5552 5556 5561
5630 5626 5621 5618 5615 5611 5608 5605 5601 5596 5592 5587 5583 5579 5575 5570 5565 5562 5555 5552 5551 5550 5549 5547 5546 5544 5542 5541 5540 5539 5538 5537 5536 5536 5537 5538 5539 5541 5544 5548 5551 5555 5559
5624 5621 5616 5611 5608 5605 5602 5598 5595 5591 5587 5583 5580 5577 5570 5566 5565 5563 5560 5557 5554 5552 5550 5548 5546 5545 5543 5541 5540 5539 5539 5538 5538 5538 5539 5539 5540 5542 5544 5547 5551 5554 5558
5614 5612 5609 5605 5602 5598 5595 5592 5589 5585 5582 5579 5576 5573 5567 5563 5562 5560 5559 5557 5555 5553 5550 5548 5547 5545 5543 5541 5539 5538 5538 5538 5539 5539 5540 5540 5541 5542 5544 5547 5550 5552 5555
5603 5600 5598 5595 5593 5589 5585 5585 5582 5579 5576 5574 5571 5568 5565 5562 5559 5557 5556 5555 5553 5551 5549 5547 5545 5544 5543 5541 5539 5538 5537 5537 5538 5539 5539 5540 5541 5542 5544 5547 5549 5551 5554
5591 5589 5587 5585 5582 5580 5577 5576 5574 5572 5570 5568 5566 5564 5562 5559 5557 5554 5553 5552 5550 5548 5547 5545 5544 5543 5541 5540 5539 5537 5536 5535 5536 5537 5538 5539 5540 5542 5544 5546 5548 5550 5553
5578 5577 5575 5573 5572 5570 5569 5567 5565 5564 5562 5560 5560 5559 5558 5555 5553 5552 5550 5549 5547 5546 5544 5543 5542 5541 5540 5538 5537 5535 5532 5531 5531 5533 5535 5537 5539 5540 5542 5544 5546 5548 5550
5565 5564 5563 5563 5562 5561 5559 5558 5557 5557 5555 5554 5553 5553 5552 5550 5548 5547 5546 5545 5544 5543 5541 5541 5541 5539 5538 5535 5533 5531 5529 5528 5529 5529 5531 5534 5536 5538 5541 5543 5545 5547 5549